Regional Weather Roundup
Issued by NWS Sioux Falls, SD

Home | Current Version | Previous Version | Text Only | Print | Product List | Glossary Off
Versions: 1 2 3 4 5 6 7 8 9 10 11 12 13 14 15 16 17 18 19 20 21 22 23 24 25 26 27 28 29 30 31 32 33 34 35 36 37 38 39 40 41 42 43 44 45 46 47 48 49 50

000
ASUS43 KFSD 230910
RWRFSD

WEATHER ROUNDUP FOR SE SOUTH DAKOTA/SW MINNESOTA/NW IOWA
NATIONAL WEATHER SERVICE SIOUX FALLS SD
400 AM CDT SUN APR 23 2017

NOTE: "FAIR" INDICATES FEW OR NO CLOUDS BELOW 12,000 FEET WITH NO
SIGNIFICANT WEATHER AND OR OBSTRUCTIONS TO VISIBILITY.


SDZ038>040-050-052>070-231000-
SOUTHEAST SOUTH DAKOTA

CITY           SKY/WX    TMP DP  RH WIND       PRES   REMARKS
BROOKINGS      CLEAR     43  35  73 S8        30.08F
CHAMBERLAIN    CLEAR     49  37  61 S12       30.05F
HURON          CLEAR     47  37  68 S13       30.04F
MADISON        FAIR      50  32  50 SW14G22   30.09F
MITCHELL       CLEAR     49  36  61 S13       30.08F
SIOUX FALLS    CLEAR     49  35  58 SW6       30.11F
WINNER         FAIR      46  32  58 SW13      30.06F
YANKTON        CLEAR     48  30  49 SW9       30.13S
$$

MNZ071-072-080-081-089-090-097-098-231000-
SOUTHWEST MINNESOTA

CITY           SKY/WX    TMP DP  RH WIND       PRES   REMARKS
JACKSON        CLEAR     46  34  61 SW8       30.12S
LUVERNE        CLEAR     37  32  81 SW6       30.12F
MARSHALL       CLOUDY    53  36  52 SW14      30.07F
MONTEVIDEO     CLOUDY    43  36  75 N8        30.09F
PIPESTONE      CLEAR     45  34  65 SW8       30.10S
REDWOOD FALLS  PTCLDY    50  36  58 SW15      30.07F
TRACY          PTCLDY    51  38  61 SW12      30.09F
WINDOM         CLEAR     46  36  66 SW10      30.10F
WORTHINGTON    CLEAR     47  33  58 SW12      30.12F
$$

IAZ001>003-012>014-020>022-031-032-NEZ013-014-SDZ071-231000-
NORTHWEST IOWA

CITY           SKY/WX    TMP DP  RH WIND       PRES   REMARKS
CHEROKEE       CLEAR     37  37 100 CALM      30.15F
DENISON        CLEAR     37  34  87 CALM      30.17S
ESTHERVILLE    CLEAR     42  35  76 W9        30.12S
LE MARS        CLEAR     39  36  87 CALM      30.15F
ORANGE CITY    CLEAR     45  34  65 CALM      30.14S
SHELDON        CLEAR     41  34  75 SW7       30.12F
SIOUX CITY     CLEAR     39  33  79 CALM      30.15F
SPENCER        CLEAR     39  33  79 SW6       30.13F
STORM LAKE     CLEAR     48  32  53 SW7       30.15S
$$

ABBREVIATIONS USED IN REMARKS
   TC - TEMPERATURE IN CELSIUS
  WCI - WIND CHILL INDEX
   HX - HEAT INDEX
  VSB - VISIBILITY





USA.gov is the U.S. government's official web portal to all federal, state and local government web resources and services.